Retour au catalogue

STARLINK-32402

ActifCommunicationsVLEO
NORAD 61708·PAYLOAD·🇺🇸 United States

Lancé Oct 30, 2024 depuis Cape Canaveral Space Force Station

Loading…

Prochains Passages (prochaines 24 heures)

TLE

FraisSource: CelesTrak SupGP

Époque: Sep 15, 2026, 02:24 UTC

1 61708C 24196B   26258.10048611  .00030615  00000+0  90433-3 0  2582
2 61708  53.1571 298.6767 0001364  88.0690  26.6857 15.34382385    13

Suivez STARLINK-32402 en temps réel avec AllMySat

Download on the App Store